Regional Weather Roundup
Issued by NWS

Home | Current Version | Previous Version | Graphics & Text | Print | Product List | Glossary On
Versions: 1 2 3 4 5 6 7 8 9 10 11 12 13 14 15 16 17 18 19 20 21 22 23 24 25 26 27 28 29 30 31 32 33 34 35 36 37 38 39 40 41 42 43 44 45 46 47 48 49 50
000
ASUS44 KMEG 312000
RWRTN
TENNESSEE HOURLY STATE WEATHER ROUNDUP
NATIONAL WEATHER SERVICE MEMPHIS TN
200 PM CST SAT JAN 31 2015

TNZ002-004-019-021-049-052-054-088>092-312100-
WEST TENNESSEE

CITY           SKY/WX    TMP DP  RH WIND       PRES   REMARKS
MEMPHIS INTL   CLOUDY    46  23  40 E6        30.25F
NWS MEMPHIS      N/A     45 N/A N/A MISG        N/A
JACKSON        CLOUDY    45  22  40 VRB7      30.27F
DYERSBURG      CLOUDY    45  19  36 SE5       30.30S
UNION CITY     MOSUNNY   41  25  52 SE9       30.26F
PARIS          PTSUNNY   43  19  39 E7        30.29F
LEXINGTON      SUNNY     46  18  31 VRB5      30.27F
SAVANNAH       SUNNY     48  18  29 E3        30.28F
$$

TNZ008-025-027-028-033-062-065-066-312100-
NORTH MIDDLE TENNESSEE

CITY           SKY/WX    TMP DP  RH WIND       PRES   REMARKS
NASHVILLE      CLOUDY    46  19  34 E3        30.31F
CLARKSVILLE    CLOUDY    47  18  31 CALM      30.30F
COOKEVILLE     SUNNY     45  10  24 CALM      30.31F
CROSSVILLE     CLOUDY    45   6  20 VRB3      30.29F
$$

TNZ061-075-076-078-094-096-097-312100-
SOUTH MIDDLE TENNESSEE

CITY           SKY/WX    TMP DP  RH WIND       PRES   REMARKS
FAYETTEVILLE   SUNNY     46  10  23 MISG      30.29F
TULLAHOMA      SUNNY     45   9  23 CALM      30.30F
WINCHESTER     SUNNY     46  16  29 E3        30.29F
MCMINNVILLE    SUNNY     46  12  25 E3        30.30F
COLUMBIA       SUNNY     48  19  32 CALM      30.28F
SHELBYVILLE    SUNNY     46  16  29 CALM      30.31F
$$

TNZ017-018-042-046-047-312100-
NORTHEAST TENNESSEE

CITY           SKY/WX    TMP DP  RH WIND       PRES   REMARKS
TRI CITIES     PTSUNNY   44   9  23 VRB3      30.30F
ELIZABETHTON   CLEAR     43   1  17 VRB7      30.28F
$$

TNZ012-013-036-069-073-074-312100-
CENTRAL EAST TENNESSEE

CITY           SKY/WX    TMP DP  RH WIND       PRES   REMARKS
KNOXVILLE      PTSUNNY   44  14  29 CALM      30.33F
OAK RIDGE      MOSUNNY   45  10  24 CALM      30.34F
GATLINBURG     CLEAR     45  12  26 VRB3      30.31F
$$

TNZ083-085-099-312100-
SOUTHEAST TENNESSEE

CITY           SKY/WX    TMP DP  RH WIND       PRES   REMARKS
CHATTANOOGA    CLOUDY    47  17  30 N5        30.33F
$$

SKY/WX REPORTED AS FAIR MEANS FEW OR NO CLOUDS BELOW
12 THOUSAND FEET.




USA.gov is the U.S. government's official web portal to all federal, state and local government web resources and services.